Terminal Aerodrome Forecast
Issued by NWS Central Illinois

Home | Current Version | Previous Version | Text Only | Print | Product List | Glossary On
Versions: 1 2 3 4 5 6 7 8 9 10 11 12 13 14 15 16 17 18 19 20 21 22 23 24 25 26 27
299
FTUS43 KILX 161125
TAFPIA
TAF
KPIA 161125Z 1612/1712 20008KT P6SM SCT250
     FM161600 21010G18KT P6SM SKC
     FM162200 18006KT P6SM SKC
     FM171000 18006KT P6SM BKN120=

USA.gov is the U.S. government's official web portal to all federal, state and local government web resources and services.